OBJECT AN, 57202

Orbit data source: Space-Track

You're viewing an Uncataloged Satellite

Recently launched and/or uncataloged satellites may have evolving metadata. Metadata may include but not limited to: Owner, Maufacturer, Bus, Motor, and Mission.

OBJECT AN, 57202 is a satellite in SSO that was launched on Tue, 27 Jun 2023 UTC via a SOYUZ-2-1B launch vehicle from the Vostochny Cosmodrome (VOSTO). Unknown objects in Earth's orbit typically refer to objects detected orbiting the Earth but have not yet been identified or cataloged. These objects could be anything from previously untracked satellites, spent rocket stages, debris from satellite collisions, or even natural meteoroids temporarily captured by Earth's gravity.

Loading next visibility...
Identifier
57202, 2023-091AN
Orbit
SSO
Country
Flag of TBDTBD
Related business
Flag of RUOOO Special Technological Center (RU)
Manufacturer
STTS/SPBPU
Mission
Operational Commercial Technology
Bus & Motor
CUBESAT 3U, Unknown motor
Mass
3 kg wet, 3 kg dry
Launch date (UTC)
2023-06-27 (3 years ago)
Launch vehicle
SOYUZ-2-1B
Launch site
Vostochny Cosmodrome (VOSTO)
Object type
Unknown
Shape & HBR
Box, 0.1 m
Radar Cross Section
0.035 m², Medium (>0.1 m² and < 1m²)

Expand to show TLE details & history
Last TLE update: 13 hours ago

TLE from 13 hours ago
0 OBJECT AN
1 57202U 23091AN  26193.82913694  .00002998  00000-0  14507-3 0  9992
2 57202  97.5105 252.4963 0009793  30.3233 329.8566 15.19333367167855
Epoch: 2026-07-12T19:53Z
TLE epoch observation values (Epoch: 2026-07-12T19:53:57.431Z)
Latitude
-0.00005°
Longitude
23.28462°
Altitude
505.109 km
Speed
7.615 km/s
True Right ascension
16h 49m 59s
True Declination
0° 00' 00"
Sunlit
Object was in full shadow at epoch
Visualization orbit readout
Latitude
Unknown
Longitude
Unknown
Altitude
Unknown
Speed
Unknown
Apparent Right ascension
Unknown
Apparent Declination
Unknown
Sunlit
N/A
Visualization observer readout
Local Sidereal Time
21:41:11
Azimuth
Unknown
Elevation
Unknown
Doppler factor
Unknown
Orbital elements
Apogee altitude
511.566 km
Perigee altitude
498.085 km
Semi-major axis
6,882.962 km
Eccentricity
0.00098
Inclination
97.5105°
RAAN
252.4963°
Arg. of periapsis
30.3233°
True anomaly
329.80019°
Mean anomaly
329.8566°
Eccentric anomaly
329.8284°
Mean motion
3.80084 °/min
Orbital period
94.72 mins
BSTAR
0.00014507
Loading maneuver chart data...
Computing Atmospheric mass density...
Loading historical data...
Loading historical data...
Loading historical data...
Loading historical data...
Loading historical data...
Loading historical data...
Loading historical data...

Documentation

Showing up to 5 results
|